Simultaneous Nadir Overpasses (SNOs) Predictions

Prediction of SNOs between AQUA and NPP Satellite Orbit:

Table of predicted SNOs for the next 14.0 days since TLE Epoch: 7/10/2020
Index Date (AQUA) Time (AQUA) Lat,Lon (AQUA) SZA (AQUA ) Date (NPP) Time (NPP) Lat,Lon (NPP) SZA (NPP ) Distance(km) Time Diff (sec)
1 07/11/2020 14:05:30 75.11,-154.80 77.01 07/11/2020 14:04:39 75.10,-154.86 77.07 2.07 51
2 07/11/2020 14:54:36 -76.17, 15.93 104.23 07/11/2020 14:55:02 -76.16, 15.83 104.22 2.93 26
3 07/14/2020 06:21:45 75.83, -36.87 76.57 07/14/2020 06:21:20 75.84, -36.79 76.57 2.15 25
4 07/14/2020 07:10:53 -76.77, 133.83 104.55 07/14/2020 07:11:45 -76.78, 133.90 104.61 1.96 52
5 07/16/2020 21:49:47 -72.87, -95.78 99.66 07/16/2020 21:48:33 -72.92, -96.06 99.57 10.84 74
6 07/16/2020 22:38:09 76.10, 79.84 76.69 07/16/2020 22:38:11 76.11, 79.87 76.68 0.88 2
7 07/16/2020 23:23:35 -81.21, -35.18 117.16 07/16/2020 23:24:48 -80.56, -36.74 117.43 78.25 73
8 07/19/2020 14:05:30 -75.26, 25.59 101.86 07/19/2020 14:04:42 -75.25, 25.58 101.81 0.30 48
9 07/19/2020 14:54:33 76.37,-163.44 76.85 07/19/2020 14:55:02 76.37,-163.44 76.83 0.08 29
10 07/22/2020 06:21:51 -75.62, 142.50 101.76 07/22/2020 06:21:30 -75.62, 142.47 101.74 0.82 21
11 07/22/2020 07:10:56 76.62, -46.69 77.06 07/22/2020 07:11:52 76.62, -46.72 77.02 0.71 56
12 07/24/2020 21:49:11 74.70, 88.28 79.84 07/24/2020 21:48:00 74.70, 88.22 79.91 1.77 71
